Canby, MN

11:15 AM CST on December 04, 2016 (GMT -0600)
Canby

Weather History for KCNB - November, 2012

Change the Weather History Date:

Saturday, November 3, 2012

  Actual Average (KMML) Record (KMML)
Temperature  
Mean Temperature 40 °F -  
Max Temperature 46 °F 46 °F 76 °F (1965)
Min Temperature 33 °F 28 °F 2 °F (1991)
Degree Days  
Heating Degree Days 26    
Moisture  
Dew Point 33 °F    
Average Humidity 83    
Maximum Humidity 97    
Minimum Humidity 62    
Precipitation  
Precipitation 0.04 in - - ()
Sea Level Pressure  
Sea Level Pressure 30.17 in    
Wind  
Wind Speed 2 mph (West)    
Max Wind Speed 10 mph    
Max Gust Speed -    
Visibility 9 miles    
Events Rain    
Averages and records for this station are not official NWS values.
T = Trace of Precipitation, MM = Missing Value Source: NWS Daily Summary

Daily Weather History Graph

Daily Weather History Graph

Search for Another Location

Airport or City:

Trip Planner

Search our weather history database for the weather conditions in past years. The results will help you decide how hot, cold, wet, or windy it might be!

Date:

Astronomy

Nov. 03, 2012 Rise Set
Actual Time 8:06 AM CDT 6:10 PM CDT
Civil Twilight 7:35 AM CDT 6:40 PM CDT
Nautical Twilight 7:01 AM CDT 7:15 PM CDT
Astronomical Twilight 6:26 AM CDT 7:49 PM CDT
Moon 9:48 PM CDT (11/3) 12:15 PM CDT (11/3)
Length of Visible Light 11h 05m
Length of Day
10h 03m
Waning Gibbous, 80% of the Moon is Illuminated
Nov 3
Waning Gibbous
Nov 6
Last Quarter
Nov 13
New
Nov 20
First Quarter
Nov 28
Full

Hourly Weather History & Observations

Time (CDT) Temp. Windchill Dew Point Humidity Pressure Visibility Wind Dir Wind Speed Gust Speed Precip Events Conditions
12:15 AM 34.9 °F - 29.8 °F 82% 30.15 in 10.0 mi Calm Calm - N/A   Overcast
12:34 AM 34.9 °F 32.0 °F 30.2 °F 83% 30.15 in 10.0 mi SE 3.5 mph - N/A   Overcast
12:55 AM 35.1 °F - 29.8 °F 81% 30.16 in 10.0 mi Calm Calm - N/A   Overcast
1:15 AM 34.9 °F - 30.0 °F 82% 30.15 in 10.0 mi Calm Calm - N/A   Overcast
1:34 AM 34.7 °F - 29.8 °F 82% 30.15 in 10.0 mi Calm Calm - N/A   Overcast
1:54 AM 34.2 °F - 30.0 °F 85% 30.15 in 10.0 mi Calm Calm - N/A   Overcast
2:15 AM 34.0 °F - 30.0 °F 85% 30.15 in 10.0 mi Calm Calm - N/A   Overcast
2:34 AM 34.0 °F - 30.0 °F 85% 30.15 in 10.0 mi Calm Calm - N/A   Overcast
2:54 AM 33.8 °F - 30.4 °F 87% 30.15 in 10.0 mi Calm Calm - N/A   Overcast
3:15 AM 34.0 °F - 30.7 °F 88% 30.15 in 10.0 mi Calm Calm - N/A   Overcast
3:34 AM 34.0 °F - 30.9 °F 89% 30.16 in 10.0 mi Calm Calm - N/A   Overcast
3:55 AM 33.8 °F - 31.1 °F 90% 30.15 in 10.0 mi Calm Calm - N/A   Overcast
4:15 AM 34.0 °F - 31.1 °F 89% 30.15 in 10.0 mi Calm Calm - N/A   Overcast
4:35 AM 34.2 °F - 31.1 °F 89% 30.15 in 10.0 mi Calm Calm - N/A   Overcast
4:55 AM 34.3 °F - 31.5 °F 89% 30.16 in 10.0 mi Calm Calm - N/A   Overcast
5:14 AM 34.2 °F - 31.3 °F 89% 30.16 in 10.0 mi Calm Calm - N/A   Overcast
5:34 AM 34.3 °F - 31.1 °F 88% 30.16 in 10.0 mi Calm Calm - N/A   Overcast
5:55 AM 34.3 °F - 31.1 °F 88% 30.16 in 10.0 mi Calm Calm - N/A   Overcast
6:14 AM 34.7 °F - 31.1 °F 87% 30.17 in 10.0 mi Calm Calm - N/A   Overcast
6:34 AM 34.7 °F - 31.3 °F 87% 30.17 in 10.0 mi Calm Calm - N/A   Overcast
6:55 AM 34.7 °F - 31.6 °F 89% 30.17 in 10.0 mi Calm Calm - N/A   Overcast
7:15 AM 34.7 °F - 31.1 °F 87% 30.17 in 10.0 mi Calm Calm - N/A   Overcast
7:34 AM 34.7 °F 31.8 °F 31.1 °F 87% 30.16 in 10.0 mi SE 3.5 mph - N/A   Overcast
7:54 AM 34.7 °F - 31.5 °F 88% 30.16 in 10.0 mi Calm Calm - N/A   Overcast
8:15 AM 34.9 °F - 31.5 °F 87% 30.17 in 10.0 mi Calm Calm - N/A   Overcast
8:34 AM 35.1 °F 30.1 °F 31.5 °F 87% 30.18 in 10.0 mi SE 5.8 mph - N/A   Overcast
8:54 AM 35.2 °F 32.4 °F 31.6 °F 87% 30.18 in 10.0 mi SE 3.5 mph - N/A   Overcast
9:15 AM 35.8 °F - 31.8 °F 86% 30.19 in 10.0 mi Calm Calm - N/A   Overcast
9:34 AM 36.3 °F 33.7 °F 32.0 °F 84% 30.19 in 10.0 mi SE 3.5 mph - N/A   Overcast
9:54 AM 36.9 °F 34.3 °F 32.0 °F 83% 30.19 in 10.0 mi SE 3.5 mph - N/A   Overcast
10:15 AM 37.6 °F - 32.0 °F 80% 30.19 in 10.0 mi Calm Calm - N/A   Overcast
10:35 AM 38.1 °F - 32.2 °F 79% 30.19 in 10.0 mi Calm Calm - N/A   Overcast
10:54 AM 38.8 °F - 32.4 °F 78% 30.19 in 10.0 mi Calm Calm - N/A   Overcast
11:14 AM 39.7 °F - 32.2 °F 74% 30.19 in 10.0 mi Calm Calm - N/A   Overcast
11:35 AM 40.6 °F 38.6 °F 31.8 °F 71% 30.19 in 10.0 mi WSW 3.5 mph - N/A   Overcast
11:54 AM 41.5 °F 38.6 °F 32.0 °F 69% 30.19 in 10.0 mi WSW 4.6 mph - N/A   Overcast
12:14 PM 42.1 °F - 31.8 °F 67% 30.19 in 10.0 mi Calm Calm - N/A   Overcast
12:35 PM 43.3 °F 41.7 °F 32.0 °F 64% 30.18 in 10.0 mi West 3.5 mph - N/A   Overcast
12:54 PM 43.7 °F 42.1 °F 32.0 °F 63% 30.18 in 10.0 mi WSW 3.5 mph - N/A   Overcast
1:15 PM 44.6 °F 42.2 °F 32.5 °F 63% 30.18 in 10.0 mi WSW 4.6 mph - N/A   Overcast
1:34 PM 44.2 °F - 32.5 °F 63% 30.17 in 10.0 mi Calm Calm - N/A   Overcast
1:55 PM 44.8 °F - 33.4 °F 64% 30.16 in 10.0 mi Calm Calm - N/A   Overcast
2:14 PM 45.0 °F - 33.4 °F 64% 30.16 in 10.0 mi Calm Calm - N/A   Overcast
2:34 PM 46.4 °F 42.4 °F 34.0 °F 62% 30.16 in 10.0 mi West 8.1 mph - N/A   Overcast
2:55 PM 46.4 °F 42.4 °F 34.0 °F 62% 30.16 in 10.0 mi West 8.1 mph - N/A   Overcast
3:14 PM 46.0 °F 41.0 °F 34.2 °F 63% 30.16 in 10.0 mi WNW 10.4 mph - N/A   Overcast
3:35 PM 45.5 °F 40.3 °F 33.8 °F 64% 30.16 in 10.0 mi WNW 10.4 mph - N/A   Overcast
3:55 PM 44.8 °F 40.4 °F 33.8 °F 65% 30.16 in 10.0 mi West 8.1 mph - N/A   Overcast
4:15 PM 45.0 °F 41.2 °F 33.8 °F 65% 30.16 in 10.0 mi West 6.9 mph - N/A   Overcast
4:34 PM 44.6 °F 39.7 °F 34.0 °F 66% 30.16 in 10.0 mi West 9.2 mph - N/A   Drizzle
4:55 PM 42.3 °F 36.8 °F 36.0 °F 78% 30.17 in 7.0 mi West 9.2 mph - N/A   Drizzle
5:15 PM 41.5 °F 37.1 °F 37.4 °F 85% 30.17 in 10.0 mi West 6.9 mph - N/A Rain Light Rain
5:34 PM 41.0 °F 39.0 °F 37.4 °F 87% 30.16 in 10.0 mi West 3.5 mph - N/A Rain Light Rain
5:54 PM 40.5 °F 37.3 °F 37.8 °F 90% 30.17 in 5.0 mi WNW 4.6 mph - 0.01 in Rain Light Rain
6:15 PM 40.1 °F 38.0 °F 37.8 °F 91% 30.17 in 5.0 mi WNW 3.5 mph - N/A Rain Rain
6:34 PM 40.1 °F - 38.3 °F 93% 30.17 in 7.0 mi Calm Calm - 0.01 in Rain Light Rain
6:55 PM 39.7 °F 36.5 °F 38.3 °F 95% 30.18 in 7.0 mi West 4.6 mph - 0.01 in Rain Rain
7:14 PM 39.6 °F 36.3 °F 37.8 °F 93% 30.18 in 10.0 mi NW 4.6 mph - N/A Rain Light Rain
7:35 PM 38.7 °F 35.2 °F 37.0 °F 94% 30.19 in 7.0 mi North 4.6 mph - 0.01 in Rain Rain
8:15 PM 37.9 °F - 36.7 °F 95% 30.19 in 7.0 mi Calm Calm - N/A Rain Light Rain
8:34 PM 37.9 °F - 36.9 °F 96% 30.19 in 5.0 mi Calm Calm - 0.01 in Rain Light Rain
8:55 PM 37.9 °F - 37.0 °F 97% 30.19 in 5.0 mi Calm Calm - 0.01 in Rain Light Rain
9:15 PM 37.4 °F 33.8 °F 36.5 °F 97% 30.19 in 7.0 mi NW 4.6 mph - N/A   Light Drizzle
9:35 PM 37.4 °F 32.8 °F 36.1 °F 95% 30.20 in 7.0 mi WNW 5.8 mph - N/A   Overcast
9:54 PM 36.9 °F 33.1 °F 35.6 °F 95% 30.20 in 7.0 mi WNW 4.6 mph - N/A   Overcast
10:15 PM 36.7 °F 34.1 °F 35.6 °F 96% 30.20 in 7.0 mi NW 3.5 mph - N/A   Overcast
10:35 PM 36.5 °F 32.7 °F 35.6 °F 97% 30.20 in 7.0 mi NW 4.6 mph - N/A   Overcast
10:55 PM 36.5 °F 32.7 °F 35.2 °F 95% 30.20 in 5.0 mi NW 4.6 mph - N/A   Overcast
11:15 PM 36.5 °F 32.7 °F 35.2 °F 95% 30.20 in 5.0 mi WNW 4.6 mph - N/A   Overcast
11:35 PM 36.5 °F 32.7 °F 35.6 °F 97% 30.21 in 5.0 mi WNW 4.6 mph - N/A   Overcast
11:55 PM 36.5 °F 33.9 °F 35.6 °F 97% 30.20 in 5.0 mi NW 3.5 mph - N/A   Overcast